Regional Weather Roundup
Issued by NWS Cleveland, OH

Home | Current Version | Previous Version | Text Only | Print | Product List | Glossary Off
Versions: 1 2 3 4 5 6 7 8 9 10 11 12 13 14 15 16 17 18 19 20 21 22 23 24 25 26 27 28 29 30 31 32 33 34 35 36 37 38 39 40 41 42 43 44 45 46 47 48 49 50

000
ASUS41 KCLE 190312
RWRCLE
OHIO REGIONAL WEATHER ROUNDUP
NATIONAL WEATHER SERVICE WILMINGTON, OH
1000 PM EST SUN FEB 18 2018

NOTE: "FAIR" INDICATES FEW OR NO CLOUDS BELOW 12,000 FEET WITH NO
SIGNIFICANT WEATHER AND/OR OBSTRUCTIONS TO VISIBILITY.

OHZ001>008-015>018-024>027-034-035-043-044-190400-
   NORTHWEST OHIO

CITY           SKY/WX    TMP DP  RH WIND       PRES   REMARKS
DEFIANCE       FAIR      37  30  75 SE8       30.12F
FINDLAY        FAIR      37  28  70 SE12      30.14F
TOLEDO EXPRESS FAIR      36  30  79 S7        30.15F
TOLEDO EXEC    FAIR      36  28  73 SE13      30.17F
LIMA           FAIR      36  30  79 SE13      30.13F
$$

OHZ009>014-019>023-028>033-038-089-190400-
   NORTHEAST OHIO

CITY           SKY/WX    TMP DP  RH WIND       PRES   REMARKS
CLE-HOPKINS    MOCLDY    36  27  69 SE13      30.23F
CLE-LAKEFRONT  FAIR      37  25  61 SE9       30.20F
CUY CO. ARPT   PTCLDY    37  27  65 S12       30.21F
LORAIN-ELYRIA  FAIR      35  24  64 S12       30.20F WCI  27
ASHTABULA      FAIR      34  27  75 SE7       30.24F WCI  28
AKRON-CANTON   CLOUDY    35  25  66 SE10      30.21F WCI  27
WOOSTER        FAIR      33  27  78 S7        30.20F WCI  27
MANSFIELD      FAIR      35  27  72 SE16      30.17F WCI  25
YOUNGSTOWN     MOCLDY    34  26  72 SE10      30.24S WCI  26
$$

OHZ042-051>053-060>062-070>072-077>081-190400-
  SOUTHWEST OHIO

CITY           SKY/WX    TMP DP  RH WIND       PRES   REMARKS
CINC-COVINGTON CLOUDY    41  34  76 SE9       30.12F
CINC-LUNKEN    FAIR      37  35  92 N3        30.16F
HAMILTON       FAIR      41  33  73 CALM      30.15F
DAYTON         CLOUDY    39  33  79 SE16      30.14F
WRIGHT-PAT AFB FAIR      40  30  69 SE9       30.15F
DAYTON GENERAL FAIR      41  31  67 SE12      30.13F
WILMINGTON     FAIR      37  32  82 SE10      30.15F
$$

OHZ036-037-039>041-045>050-054>059-063>069-073>076-082>088-190400-
  CENTRAL AND SOUTHEAST OHIO

CITY           SKY/WX    TMP DP  RH WIND       PRES   REMARKS
COLUMBUS       MOCLDY    37  30  75 SE9       30.19F
OSU AIRPORT    FAIR      37  30  75 SE13      30.18F
BOLTON FIELD   FAIR      36  30  80 SE8       30.18F
RICKENBACK AFB FAIR      35  30  83 SE6       30.18F WCI  30
NEWARK         FAIR      35  27  72 E5        30.20F
MARION         FAIR      35  28  75 S15       30.17F WCI  25
LANCASTER      FAIR      36  28  73 SE7       30.20F
ZANESVILLE     FAIR      34  27  75 E3        30.23F
NEW PHILLY     FAIR      34  27  75 SE8       30.24F WCI  27
$$




USA.gov is the U.S. government's official web portal to all federal, state and local government web resources and services.